Regional Weather Roundup
Issued by NWS

Home | Current Version | Previous Version | Graphics & Text | Print | Product List | Glossary On
Versions: 1 2 3 4 5 6 7 8 9 10 11 12 13 14 15 16 17 18 19 20 21 22 23 24 25 26 27 28 29 30 31 32 33 34 35 36 37 38 39 40 41 42 43 44 45 46 47 48 49 50
000
ASUS43 KDMX 190207
RWRIA

WEATHER ROUNDUP FOR IOWA
NATIONAL WEATHER SERVICE DES MOINES IA
900 PM CDT MON AUG 18 2014

NOTE: "FAIR" INDICATES FEW OR NO CLOUDS BELOW 12,000 FEET WITH NO
SIGNIFICANT WEATHER AND/OR OBSTRUCTIONS TO VISIBILITY.

* - THESE STATIONS ARE NOT NWS STATIONS...THUS NOT UNDER NWS
QUALITY CONTROL.  THEY ALSO DO NOT REPORT WEATHER SUCH
AS PRECIPITATION OR FOG.

IAZ001>003-012>014-020>022-031>034-043>046-190300-
   NORTHWEST IOWA

CITY           SKY/WX    TMP DP  RH WIND       PRES   REMARKS
CARROLL *      CLEAR     73  70  88 SW6       29.75R
CHEROKEE *     MOCLDY    75  70  83 SW5       29.75R
DENISON *      CLEAR     75  72  88 SW5       29.75R
LE MARS *      CLEAR     77  68  73 W5        29.76R
ORANGE CITY *  PTCLDY    77  64  65 NW8       29.77R
SHELDON *      PTCLDY    75  66  73 W8G15     29.74S
SIOUX CITY     CLEAR     75  71  87 W5        29.75S
SPENCER        CLOUDY    70  67  90 SW7       29.74S
STORM LAKE *   CLEAR     73  73 100 SW7       29.77S
$$

IAZ055>058-069>071-079>083-090>094-190300-
   SOUTHWEST IOWA

CITY           SKY/WX    TMP DP  RH WIND       PRES   REMARKS
ATLANTIC *     CLEAR     75  70  83 CALM      29.77R
AUDUBON *      CLEAR     77  72  83 SW6       29.78S
CLARINDA *     CLEAR     72  72 100 CALM      29.80S
COUNCIL BLFS * CLEAR     79  72  78 S5        29.77S HX  82
CRESTON *      CLEAR     75  72  88 SW8       29.79S
HARLAN  *      CLEAR     75  70  83 S3        29.81R
LAMONI         CLEAR     76  72  87 S7        29.79S
RED OAK *      CLEAR     73  70  88 CALM      29.79R
SHENANDOAH *   CLEAR     75  72  88 S3        29.79R
$$

IAZ047>049-059>061-072>074-084-190300-
   CENTRAL IOWA

CITY           SKY/WX    TMP DP  RH WIND       PRES   REMARKS
AMES           CLEAR     72  69  90 SW5       29.75R
ANKENY *       CLEAR     79  70  73 SW8       29.74S HX  81
CHARITON *     CLEAR     73  72  94 S8        29.78S
DES MOINES     PTCLDY    79  72  79 S7        29.74S HX  82
GRINNELL*      CLEAR     73  70  88 S7        29.77R
KNOXVILLE *    CLEAR     75  72  88 S7        29.75F
MARSHALLTOWN   CLEAR     76  72  87 SW7       29.74R
PELLA *        CLEAR     73  72  94 S6        29.77S
PERRY *          N/A     72  70  94 S6        29.74S
$$

IAZ004>006-015-016-023>025-035-036-190300-
   NORTH CENTRAL IOWA

CITY           SKY/WX    TMP DP  RH WIND       PRES   REMARKS
ALGONA *       DRIZZLE   77  70  78 SW7       29.73S
CLARION *      PTCLDY    75  70  83 SW6       29.74R
ESTHERVILLE    CLOUDY    69  66  90 W6        29.73F
FORT DODGE *   PTCLDY    75  68  78 SW5       29.75R
MASON CITY     MOCLDY    78  66  66 VRB7G17   29.74R HX  80
FOREST CITY *  PTCLDY    77  66  69 SW12G17   29.72S
IOWA FALLS *     N/A     73  68  83 SW7       29.75R
$$

IAZ007>011-017>019-026>030-037>042-050>054-066-190300-
   NORTHEAST IOWA

CITY           SKY/WX    TMP DP  RH WIND       PRES   REMARKS
CEDAR RAPIDS   CLEAR     71  68  90 S7        29.76R
CHARLES CITY * PTCLDY    75  68  78 S6        29.73R
CLINTON *      CLEAR     70  66  88 SW6       29.80S
DECORAH *      PTCLDY    75  70  83 S8G14     29.71S
DUBUQUE        CLEAR     72  69  90 SW9       29.76S
MONTICELLO *   CLEAR     73  70  88 S6        29.75S
OELWEIN *      CLOUDY    75  70  83 S8G14     29.75R
WATERLOO       CLEAR     77  71  82 SW10      29.73R
$$

IAZ064-065-067-068-078-190300-
   EAST CENTRAL IOWA

CITY           SKY/WX    TMP DP  RH WIND       PRES   REMARKS
DAVENPORT      CLEAR     74  67  78 SW7       29.78S
IOWA CITY      CLEAR     75  69  81 S5        29.77S
MT. PLEASANT * CLEAR     73  70  88 S5        29.78S
MUSCATINE *    CLEAR     75  70  83 S5        29.77S
QUAD CITIES    CLEAR     74  68  81 S6        29.77S
$$

IAZ062-063-075>077-085>089-095>099-190300-
   SOUTHEAST IOWA

CITY           SKY/WX    TMP DP  RH WIND       PRES   REMARKS
BURLINGTON     CLEAR     73  70  90 SW5       29.79R
FAIRFIELD *    CLEAR     73  68  83 S6        29.78S
FORT MADISON * CLEAR     75  73  94 CALM      29.80S
KEOKUK *       CLEAR     75  72  88 S3        29.79R
OSKALOOSA *      N/A     70  68  94 S7        29.78S
CENTERVILLE *  CLEAR     72  72 100 S3        29.81S
OTTUMWA        CLEAR     72  69  90 S6        29.77F
WASHINGTON *   CLEAR     72  70  94 S7        29.77S
$$

ABBREVIATIONS USED IN REMARKS
   TC - TEMPERATURES IN CELSIUS
  WCI - WIND CHILL INDEX
   HX - HEAT INDEX
  VSB - VISIBILITY
$$



USA.gov is the U.S. government's official web portal to all federal, state and local government web resources and services.